Stations météo

Publicité
Tarbes/Ossun, France (7621): Température de l'air & dewpoint: 12.08.2017 03:00:00 - 18.08.2017 03:00:00 (CEST)Tarbes/Ossun, France (7621): Température de l'air 5cm: 12.08.2017 03:00:00 - 18.08.2017 03:00:00 (CEST)Tarbes/Ossun, France (7621): Température de l'air -20cm & Température de l'air -100cm: 12.08.2017 03:00:00 - 18.08.2017 03:00:00 (CEST)Tarbes/Ossun, France (7621): Vitesse du vent & gusts: 12.08.2017 03:00:00 - 18.08.2017 03:00:00 (CEST)Tarbes/Ossun, France (7621): Direction du vent: 12.08.2017 03:00:00 - 18.08.2017 03:00:00 (CEST)Tarbes/Ossun, France (7621): reduced air pressure: 12.08.2017 03:00:00 - 18.08.2017 03:00:00 (CEST)Tarbes/Ossun, France (7621): visibility: 12.08.2017 03:00:00 - 18.08.2017 03:00:00 (CEST)Tarbes/Ossun, France (7621): Ensoleillement: 12.08.2017 03:00:00 - 18.08.2017 03:00:00 (CEST)Tarbes/Ossun, France (7621): Quantités de précipitations: 12.08.2017 03:00:00 - 18.08.2017 03:00:00 (CEST)
Date & Time tt [°C] td [°C] tt 5cm [°C] tt -20cm [°C] tt -100cm [°C] ff [km/h] ff [knt] fx [km/h] fx [knt] dd ppp [hPa] vv [km] sd [min] rr [mm]
18.08.2017 03:00:00 17,7 15,7 15,2 21,5 18,4 5 3 12 7 S 1018,3 27 0 0,0
18.08.2017 02:00:00 16,7 15,6 15,0 21,6 18,4 9 5 12 7 S 1018,8 23 0 0,0
18.08.2017 01:00:00 18,2 16,2 15,0 21,6 18,4 3 2 9 5 SSW 1018,2 27 0 0,0
18.08.2017 00:00:00 18,6 16,4 15,7 21,6 18,4 5 3 10 5 SE 1018,3 29 0 0,0
17.08.2017 23:00:00 19,4 16,6 16,7 21,6 18,4 6 4 13 7 SSE 1018,7 30 0 0,0
17.08.2017 22:00:00 20,1 17,1 17,1 21,6 18,4 6 3 10 6 S 1018,8 41 0 0,0
17.08.2017 21:00:00 24,8 15,1 18,8 21,5 18,4 5 3 10 6 E 1018,5 46 36 0,0
17.08.2017 20:00:00 26,0 15,4 23,3 21,3 18,4 8 4 17 9 N 1018,7 44 60 0,0
17.08.2017 19:00:00 27,4 16,1 29,6 21,1 18,4 10 5 20 11 NNW 1018,5 33 60 0,0
17.08.2017 18:00:00 28,0 15,6 - - - 4 2 15 8 NNW 1018,6 40 - 0,0
17.08.2017 17:00:00 27,9 16,2 37,0 20,7 18,4 5 3 18 10 WNW 1018,9 45 60 0,0
17.08.2017 16:00:00 26,7 15,7 36,8 20,5 18,4 7 4 19 11 NNE 1019,1 38 60 0,0
17.08.2017 15:00:00 26,3 16,0 36,1 20,4 18,4 10 5 20 11 NNW 1019,6 20 60 0,0
17.08.2017 14:00:00 25,5 17,2 34,0 20,2 18,4 8 4 20 11 NNW 1020,2 18 60 0,0
17.08.2017 13:00:00 24,3 16,3 29,1 20,2 18,4 5 3 14 8 SSE 1020,9 45 58 0,0
17.08.2017 12:00:00 22,6 17,3 26,1 20,1 18,4 9 5 24 13 NNW 1021,5 35 39 0,0
17.08.2017 11:00:00 22,4 17,3 - - - 5 3 13 7 E 1021,2 24 - -
17.08.2017 10:00:00 20,0 17,2 19,5 20,2 18,4 5 3 10 5 N 1021,2 20 43 0,0
17.08.2017 09:00:00 18,9 17,0 17,6 20,2 18,4 5 3 13 7 SSE 1021,2 14 25 0,0
17.08.2017 08:00:00 17,9 17,3 17,9 20,3 18,4 5 3 7 4 S 1021,6 4,5 0 0,0
17.08.2017 07:00:00 17,8 17,2 17,7 20,3 18,4 2 1 8 5 SSW 1021,3 8 0 0,0
17.08.2017 06:00:00 18,0 17,4 14,7 20,4 18,4 0 0 9 5 N 1020,9 0,3 0 0,0
17.08.2017 05:00:00 17,6 16,6 14,7 20,4 18,4 2 1 8 4 N 1020,9 0,2 0 0,0
17.08.2017 04:00:00 18,8 18,0 18,2 20,4 18,4 4 2 7 4 N 1021,1 7 0 0,0
17.08.2017 03:00:00 18,9 17,9 18,7 20,4 18,3 3 2 6 4 S 1021,5 7 0 0,2
17.08.2017 02:00:00 19,1 17,8 18,8 20,5 18,4 3 2 6 3 SSW 1022,2 12 0 0,0
17.08.2017 01:00:00 19,2 18,0 18,6 20,5 18,4 2 1 6 4 S 1022,3 19 0 0,0
17.08.2017 00:00:00 19,1 17,9 - - - 2 1 8 4 SSW 1022,3 20 - 0,0
16.08.2017 23:00:00 19,3 18,0 18,5 20,5 18,4 6 3 6 4 SSW 1022,6 21 0 0,0
16.08.2017 22:00:00 19,3 17,4 17,7 20,5 18,4 2 1 6 4 W 1022,8 16 0 0,0
16.08.2017 21:00:00 20,1 17,1 19,3 20,5 18,3 0 0 8 4 N 1022,2 27 0 0,0
16.08.2017 20:00:00 20,4 17,4 20,6 20,5 18,3 4 2 11 6 NW 1022,3 27 0 0,0
16.08.2017 19:00:00 20,8 17,6 21,4 20,5 18,3 6 4 14 8 NNW 1021,8 27 0 0,0
16.08.2017 18:00:00 20,6 17,6 20,9 20,5 18,3 8 4 21 11 NW 1021,9 29 0 0,0
16.08.2017 17:00:00 20,8 17,6 21,7 20,4 18,3 12 6 25 13 WNW 1021,8 32 0 0,0
16.08.2017 16:00:00 20,1 17,3 21,3 20,4 18,3 8 4 19 10 WNW 1021,6 28 0 0,0
16.08.2017 15:00:00 19,8 17,2 20,8 20,4 18,3 5 3 12 6 W 1021,9 21 0 0,0
16.08.2017 14:00:00 19,1 17,1 20,4 20,4 18,3 7 4 18 10 WNW 1022,2 29 0 0,0
16.08.2017 13:00:00 19,0 17,1 19,8 20,5 18,3 8 5 16 9 W 1022,1 24 0 0,0
16.08.2017 12:00:00 18,7 17,4 19,7 20,5 18,3 10 5 34 18 W 1022,0 19 0 0,0
16.08.2017 11:00:00 18,6 17,4 19,3 20,5 18,3 9 5 15 8 NW 1021,7 26 0 0,0
16.08.2017 10:00:00 17,8 17,2 - - - 8 4 13 7 WSW 1021,7 4,6 - 0,2
16.08.2017 09:00:00 17,6 17,1 17,7 20,6 18,3 5 3 9 5 W 1021,9 2,4 0 0,2
16.08.2017 08:00:00 17,5 17,0 17,6 20,7 18,3 5 3 10 5 WNW 1021,4 2,2 0 0,2
16.08.2017 07:00:00 17,5 17,0 17,6 20,7 18,3 4 2 8 5 NNW 1021,0 1,8 0 0,0
16.08.2017 06:00:00 17,6 17,1 17,6 20,8 18,3 6 3 11 6 NNW 1020,4 1,6 0 0,2
16.08.2017 05:00:00 17,9 17,3 17,8 20,8 18,3 6 4 11 6 NNW 1020,3 2,2 0 0,0
16.08.2017 04:00:00 18,1 17,5 18,0 20,8 18,3 6 3 14 8 NNW 1020,6 1,7 0 0,4
16.08.2017 03:00:00 18,6 17,9 18,6 20,9 18,3 5 3 9 5 WNW 1021,2 3,3 0 0,0
16.08.2017 02:00:00 18,8 18,0 18,8 21,0 18,3 4 2 7 4 WNW 1021,5 4,0 0 0,2
16.08.2017 01:00:00 19,0 18,2 18,9 21,0 18,3 4 2 5 3 WNW 1021,7 2,3 0 0,2
16.08.2017 00:00:00 19,1 18,1 18,9 21,0 18,3 4 2 11 6 NW 1021,9 3,7 0 0,0
15.08.2017 23:00:00 19,5 17,8 19,0 21,0 18,2 6 3 10 5 WSW 1021,6 12 0 0,0
15.08.2017 22:00:00 19,5 17,8 19,0 21,1 18,3 6 3 15 8 SSW 1021,2 15 0 0,0
15.08.2017 21:00:00 19,8 18,1 19,3 21,1 18,3 9 5 17 9 SW 1020,6 14 0 0,0
15.08.2017 20:00:00 21,2 17,6 20,5 21,0 18,2 6 3 12 7 W 1019,8 16 0 0,0
15.08.2017 19:00:00 21,5 17,9 21,2 21,0 18,3 9 5 22 12 N 1019,4 23 0 0,0
15.08.2017 18:00:00 21,8 17,8 - - - 11 6 24 13 NW 1019,5 21 - 0,0
15.08.2017 17:00:00 22,2 18,2 23,3 20,8 18,2 16 9 28 15 NNW 1019,1 20 0 0,0
15.08.2017 16:00:00 23,8 18,9 25,2 20,7 18,2 16 9 23 12 NNW 1018,2 26 22 0,0
15.08.2017 15:00:00 24,4 19,7 26,1 20,7 18,2 15 8 29 15 N 1017,9 22 31 0,0
15.08.2017 14:00:00 23,3 19,0 22,0 20,7 18,2 14 8 27 15 ESE 1017,6 20 13 0,2
15.08.2017 13:00:00 21,5 17,7 23,1 20,7 18,2 12 6 24 13 WNW 1019,3 19 9 0,0
15.08.2017 12:00:00 21,0 17,8 20,1 20,7 18,2 5 3 21 12 WSW 1018,9 19 3 0,4
15.08.2017 11:00:00 19,7 17,7 19,9 20,8 18,2 14 8 24 13 W 1019,5 16 0 0,2
15.08.2017 10:00:00 19,5 17,6 19,6 20,8 18,2 10 5 16 9 W 1018,6 14 0 0,0
15.08.2017 09:00:00 19,2 17,5 18,2 20,9 18,2 9 5 16 8 SW 1017,9 12 4 0,0
15.08.2017 08:00:00 18,6 17,4 18,0 21,0 18,2 6 3 14 8 S 1017,5 8 0 0,0
15.08.2017 07:00:00 18,7 17,5 17,8 21,0 18,2 8 4 26 14 W 1017,6 9 0 0,0
15.08.2017 06:00:00 18,6 17,4 16,3 21,1 18,2 12 7 21 11 W 1017,2 9 0 0,0
15.08.2017 05:00:00 19,2 17,3 18,1 21,2 18,2 10 5 31 17 NNW 1016,6 28 0 1,0
15.08.2017 04:00:00 19,8 17,8 18,4 21,2 18,2 6 3 27 15 WNW 1017,7 20 0 0,8
15.08.2017 03:00:00 20,8 17,6 18,9 21,3 18,2 9 5 15 8 WSW 1018,3 19 0 0,0
15.08.2017 02:00:00 22,3 16,6 19,8 21,3 18,2 9 5 23 12 SSE 1016,7 41 0 0,0
15.08.2017 01:00:00 22,3 16,3 20,4 21,4 18,2 16 8 43 23 SW 1017,2 39 0 0,0
15.08.2017 00:00:00 23,5 17,7 19,0 21,3 18,2 30 16 56 30 W 1016,6 37 0 0,0
14.08.2017 23:00:00 21,6 18,4 18,4 21,3 18,2 7 4 12 7 S 1013,4 32 0 0,0
14.08.2017 22:00:00 22,6 18,8 19,0 21,2 18,2 6 3 15 8 S 1012,9 43 0 0,0
14.08.2017 21:00:00 26,7 20,1 21,2 21,1 18,2 6 4 11 6 SSW 1012,0 49 18 0,0
14.08.2017 20:00:00 31,6 17,1 26,5 20,8 18,2 5 3 11 6 E 1011,2 51 57 0,0
14.08.2017 19:00:00 32,2 17,3 32,1 20,6 18,2 8 5 18 10 E 1011,1 37 50 0,0
14.08.2017 18:00:00 32,6 16,8 36,4 20,3 18,2 11 6 21 11 NE 1011,3 48 53 0,0
14.08.2017 17:00:00 33,1 17,3 41,1 20,1 18,2 10 5 27 15 E 1011,4 20 60 0,0
14.08.2017 16:00:00 32,4 18,2 43,2 19,9 18,2 7 4 21 11 NNE 1011,6 53 60 0,0
14.08.2017 15:00:00 31,6 18,2 41,2 19,7 18,2 8 4 19 10 ENE 1012,2 60 60 0,0
14.08.2017 14:00:00 31,1 17,8 38,1 19,6 18,2 8 5 22 12 NE 1012,5 51 60 0,0
14.08.2017 13:00:00 28,9 16,5 35,0 19,5 18,2 8 4 16 9 NE 1013,2 22 60 0,0
14.08.2017 12:00:00 26,5 17,3 30,0 19,5 18,2 7 4 17 9 NNE 1013,7 20 60 0,0
14.08.2017 11:00:00 24,5 17,0 24,2 19,5 18,2 3 2 11 6 NNE 1014,1 19 60 0,0
14.08.2017 10:00:00 21,4 15,9 18,5 19,6 18,2 6 4 10 6 N 1014,5 51 60 0,0
14.08.2017 09:00:00 18,3 15,9 14,0 19,7 18,2 2 1 7 4 SE 1014,8 32 60 0,0
14.08.2017 08:00:00 14,8 14,2 10,8 19,8 18,2 4 2 8 4 SSE 1015,9 37 28 0,0
14.08.2017 07:00:00 13,6 12,5 10,7 19,9 18,2 3 2 8 5 SSE 1016,2 17 0 0,0
14.08.2017 06:00:00 13,9 12,9 11,5 20,0 18,2 5 3 10 6 SSE 1016,2 20 0 0,2
14.08.2017 05:00:00 13,9 12,9 11,3 20,1 18,2 6 3 9 5 SSE 1016,6 29 0 0,0
14.08.2017 04:00:00 14,3 13,0 11,3 20,2 18,2 3 2 8 5 SW 1016,8 30 0 0,0
14.08.2017 03:00:00 14,9 13,6 11,8 20,3 18,2 3 1 6 4 N 1016,9 18 0 0,0
14.08.2017 02:00:00 16,0 13,8 13,3 20,3 18,2 5 3 10 6 S 1017,3 41 0 0,0
14.08.2017 01:00:00 17,5 15,1 13,9 20,4 18,2 5 3 9 5 SE 1017,6 45 0 0,0
14.08.2017 00:00:00 16,7 14,7 - - - 8 4 9 5 S 1018,1 45 - 0,0
13.08.2017 23:00:00 17,3 15,3 14,7 20,4 18,2 6 3 9 5 S 1018,2 50 0 0,0
13.08.2017 22:00:00 19,3 15,6 15,6 20,3 18,2 8 4 11 6 SSW 1017,6 47 0 0,0
13.08.2017 21:00:00 23,5 14,2 18,2 20,1 18,2 8 4 16 9 NE 1016,9 60 39 0,0
13.08.2017 20:00:00 25,0 14,5 22,6 20,0 18,2 9 5 20 11 NE 1016,9 57 60 0,0
13.08.2017 19:00:00 26,0 15,1 29,6 19,8 18,2 8 5 20 11 NE 1016,8 53 60 0,0
13.08.2017 18:00:00 26,1 14,5 34,7 19,5 18,2 9 5 25 13 ESE 1017,3 58 60 0,0
13.08.2017 17:00:00 26,0 14,8 36,0 19,3 18,2 8 4 22 12 NE 1017,6 49 60 0,0
13.08.2017 16:00:00 25,7 14,2 36,8 19,1 18,2 10 5 29 16 ENE 1017,9 60 60 0,0
13.08.2017 15:00:00 25,0 14,2 35,7 19,0 18,2 10 5 28 15 ENE 1018,5 35 60 0,0
13.08.2017 14:00:00 24,8 14,9 33,5 18,8 18,2 11 6 27 14 ENE 1018,9 60 60 0,0
13.08.2017 13:00:00 24,1 13,9 31,9 18,8 18,2 13 7 28 15 E 1019,5 60 60 0,0
13.08.2017 12:00:00 22,6 13,9 27,6 18,8 18,2 10 6 24 13 ENE 1020,3 46 60 0,0
13.08.2017 11:00:00 21,0 13,9 22,9 18,8 18,2 9 5 17 9 ENE 1020,9 43 60 0,0
13.08.2017 10:00:00 18,8 13,4 17,7 18,9 18,3 3 2 9 5 SSE 1021,3 38 51 0,0
13.08.2017 09:00:00 16,3 13,2 13,2 19,0 18,2 6 3 12 6 SE 1021,8 35 60 0,0
13.08.2017 08:00:00 13,4 12,1 9,6 19,1 18,2 7 4 12 6 S 1022,2 42 31 0,0
13.08.2017 07:00:00 11,9 10,8 9,5 19,2 18,2 5 3 9 5 SSE 1022,2 27 0 0,0
13.08.2017 06:00:00 13,2 11,4 10,7 19,3 18,3 6 4 15 8 S 1021,9 35 0 0,0
13.08.2017 05:00:00 13,2 11,4 10,7 19,4 18,3 10 6 14 8 SE 1022,2 37 0 0,0
13.08.2017 04:00:00 13,0 11,4 10,8 19,5 18,3 8 5 13 7 S 1022,5 38 0 0,0
13.08.2017 03:00:00 12,6 11,0 10,3 19,5 18,3 10 5 11 6 S 1022,6 34 0 0,0
13.08.2017 02:00:00 13,4 11,1 11,1 19,6 18,3 7 4 11 6 S 1022,6 48 0 0,0
13.08.2017 01:00:00 14,8 12,1 12,5 19,6 18,3 9 5 15 8 S 1023,0 47 0 0,0
13.08.2017 00:00:00 15,0 12,7 12,8 19,7 18,3 9 5 11 6 S 1023,3 57 0 0,0
12.08.2017 23:00:00 15,4 13,1 13,0 19,6 18,3 8 5 10 5 S 1023,5 46 0 0,0
12.08.2017 22:00:00 17,4 14,5 15,4 19,5 18,3 5 3 7 4 S 1023,0 15 0 0,0
12.08.2017 21:00:00 19,5 13,9 - - - 5 3 9 5 N 1022,3 55 - 0,0
12.08.2017 20:00:00 21,2 12,3 18,4 19,2 18,3 6 4 14 7 N 1021,9 60 37 0,0
12.08.2017 19:00:00 22,7 11,1 26,0 19,0 18,3 10 6 16 9 N 1021,7 60 60 0,0
12.08.2017 18:00:00 23,1 11,2 31,9 18,8 18,3 10 5 19 10 N 1021,9 45 60 0,0
12.08.2017 17:00:00 22,9 11,9 33,9 18,6 18,4 8 5 21 11 NNE 1022,1 51 60 0,0
12.08.2017 16:00:00 22,7 10,5 34,2 18,4 18,3 9 5 23 13 N 1022,6 57 60 0,0
12.08.2017 15:00:00 22,3 12,3 32,6 18,3 18,4 14 7 25 13 NNW 1022,8 20 60 0,0
12.08.2017 14:00:00 21,3 9,8 - - - 9 5 18 10 N 1023,2 60 - -
12.08.2017 13:00:00 20,6 11,0 28,7 18,1 18,4 5 3 18 10 W 1023,8 58 60 0,0
12.08.2017 12:00:00 19,5 11,3 24,3 18,0 18,4 5 3 14 8 SE 1024,5 48 57 0,0
12.08.2017 11:00:00 17,8 11,8 21,5 18,0 18,4 5 3 20 11 N 1024,8 41 51 0,0
12.08.2017 10:00:00 16,9 11,8 17,1 18,0 18,4 8 5 14 8 N 1024,6 34 60 0,0
12.08.2017 09:00:00 15,6 12,0 14,7 18,1 18,4 4 2 10 5 S 1024,5 35 28 0,0
12.08.2017 08:00:00 13,9 12,6 13,7 18,1 18,4 4 2 9 5 NNE 1024,7 25 0 0,0
12.08.2017 07:00:00 14,1 12,8 13,7 18,2 18,4 3 2 6 3 N 1024,5 20 0 0,0
12.08.2017 06:00:00 14,1 12,7 13,8 18,2 18,4 2 1 4 2 E 1024,2 27 0 0,0
12.08.2017 05:00:00 14,2 12,6 13,6 18,2 18,5 4 2 8 4 SE 1024,1 32 0 0,0
12.08.2017 04:00:00 14,0 12,7 - - - 4 2 5 3 SSE 1024,8 30 - 0,0
12.08.2017 03:00:00 13,8 12,2 10,7 18,3 18,5 4 2 5 3 SSE 1025,0 30 0 0,0

tt = Température de l'air
td = dewpoint
tt 5cm = Température de l'air 5cm
tt -20cm = Température de l'air -20cm
tt -100cm = Température de l'air -100cm
ff = Vitesse du vent
fx = gusts
dd = Direction du vent
ppp = reduced air pressure
vv = visibility
sd = Ensoleillement
rr = Quantités de précipitations

stations d'obs. à proximité